Location: Bretagne
(43.8474°N, 0.4650°W)
Time: 14:22:11
(UTC+00:00)

Meteor 1-15 Rocket - Pass Details

Date: 15 January 2026
Orbit: 838 x 906 km, 81.2° (Epoch: 18 February)

Event Time Altitude Azimuth Distance (km) Brightness Sun altitude
Rises 17:44:56 0° 348° (NNW) 3,543 7.4 -9.8°
Reaches altitude 10° 17:47:25 10° 348° (NNW) 2,596 6.7 -10.3°
Maximum altitude 17:53:21 85° 262° (W) 910 4.4 -11.3°
Drops below altitude 10° 17:59:11 10° 174° (S) 2,551 6.8 -12.3°
Sets 18:01:36 0° 174° (S) 3,478 7.5 -12.7°
